Hourly Data Report for July 23, 2017

QUALICUM BEACH AIRPORT
BRITISH COLUMBIA

49°20'14.000" N
124°23'38.000" W
58.20 m
1026562
71766
VOQ

Download Data

Hourly Data (July 2017)
Hourly Data Report for July 23, 2017
TIME
LST
Temp Definition
°C
Dew Point Definition
°C
Rel Hum Definition
%
Precip. Amount Definition
mm

Wind Dir Definition
10's deg

Wind Spd Definition
km/h
Visibility Definition
km
Stn Press Definition
kPa
Hmdx Definition


Wind Chill Definition


Weather Definition


00:00 15.3 14.4 94 0.0 32 5   101.26     LegendNANA
01:00 15.9 14.2 90 0.0 29 8   101.24     LegendNANA
02:00 16.5 15.2 92 0.0 31 13   101.23     LegendNANA
03:00 15.7 14.3 91 0.0 32 12   101.24     LegendNANA
04:00 15.4 14.3 93 0.0 31 10   101.22     LegendNANA
05:00 15.4 14.1 92 0.0 31 8   101.22     LegendNANA
06:00 15.3 13.1 87 0.0 30 10   101.26     LegendNANA
07:00 15.7 11.9 78 0.0 31 12   101.30     LegendNANA
08:00 16.7 11.7 72 0.0 30 9   101.31     LegendNANA
09:00 17.2 11.3 68 0.0 33 11   101.28     LegendNANA
10:00 18.6 11.2 62 0.0 34 15   101.29     LegendNANA
11:00 18.0 10.6 62 0.0 33 15   101.26     LegendNANA
12:00 19.4 11.0 58 0.0 33 18   101.26     LegendNANA
13:00 20.0 10.5 54 0.0 33 16   101.25     LegendNANA
14:00 20.9 10.6 52 0.0 34 17   101.24     LegendNANA
15:00 20.6 10.0 50 0.0 32 17   101.18     LegendNANA
16:00 21.2 8.7 45 0.0 32 19   101.14     LegendNANA
17:00 21.4 9.3 46 0.0 32 17   101.10     LegendNANA
18:00 21.2 9.9 48 0.0 29 11   101.08     LegendNANA
19:00 20.4 10.8 54 0.0 30 15   101.07     LegendNANA
20:00 18.7 11.5 63 0.0 30 12   101.07     LegendNANA
21:00 18.1 12.0 68 0.0 28 9   101.12     LegendNANA
22:00 17.0 12.4 74 0.0 29 9   101.12     LegendNANA
23:00 15.5 10.9 74 0.0 27 6   101.13     LegendNANA

Notes on Data Quality.

Legend

  • E = Estimated
  • M = Missing
  • NA = Not Available*
  • [empty] = Indicates an unobserved value
Date modified: